Gastonia, NC

11:22 PM EST on December 08, 2016 (GMT -0500)
Gastonia Municipal

Weather History for KAKH - October, 2013

Change the Weather History Date:

Sunday, October 6, 2013

  Actual Average (KCLT) Record (KCLT)
Temperature  
Mean Temperature 72 °F -  
Max Temperature 82 °F 75 °F 98 °F (1954)
Min Temperature 62 °F 52 °F 38 °F (1935)
Cooling Degree Days 7    
Growing Degree Days 22 (Base 50)    
Moisture  
Dew Point 63 °F    
Average Humidity 80    
Maximum Humidity 97    
Minimum Humidity 54    
Precipitation  
Precipitation 0.00 in - - ()
Sea Level Pressure  
Sea Level Pressure 29.99 in    
Wind  
Wind Speed 2 mph (South)    
Max Wind Speed 10 mph    
Max Gust Speed 17 mph    
Visibility 7 miles    
Events      
Averages and records for this station are not official NWS values.
T = Trace of Precipitation, MM = Missing Value Source: NWS Daily Summary

Daily Weather History Graph

Daily Weather History Graph

Search for Another Location

Airport or City:

Trip Planner

Search our weather history database for the weather conditions in past years. The results will help you decide how hot, cold, wet, or windy it might be!

Date:

Astronomy

Oct. 06, 2013 Rise Set
Actual Time 7:23 AM EDT 7:01 PM EDT
Civil Twilight 6:58 AM EDT 7:26 PM EDT
Nautical Twilight 6:28 AM EDT 7:55 PM EDT
Astronomical Twilight 5:59 AM EDT 8:25 PM EDT
Moon 9:01 AM EDT (10/6) 8:05 PM EDT (10/6)
Length of Visible Light 12h 28m
Length of Day
11h 37m
Waxing Crescent, 3% of the Moon is Illuminated
Oct 6
Waxing Crescent
Oct 11
First Quarter
Oct 18
Full
Oct 26
Last Quarter
Nov 3
New

Hourly Weather History & Observations

Time (EDT) Temp. Heat Index Dew Point Humidity Pressure Visibility Wind Dir Wind Speed Gust Speed Precip Events Conditions
12:54 AM 63.0 °F - 62.1 °F 97% 30.05 in 5.0 mi Calm Calm - N/A   Clear
1:54 AM 64.0 °F - 63.0 °F 96% 30.04 in 6.0 mi South 3.5 mph - N/A   Clear
2:54 AM 66.0 °F - 63.0 °F 90% 30.03 in 9.0 mi Calm Calm - N/A   Clear
3:54 AM 63.0 °F - 62.1 °F 97% 30.01 in 6.0 mi Calm Calm - N/A   Partly Cloudy
4:54 AM 63.0 °F - 61.0 °F 93% 30.01 in 5.0 mi Calm Calm - N/A   Clear
5:17 AM 62.6 °F - 60.8 °F 94% 30.03 in 2.5 mi Calm Calm - N/A   Clear
5:26 AM 62.6 °F - 60.8 °F 94% 30.03 in 4.0 mi Calm Calm - N/A   Clear
5:54 AM 62.1 °F - 61.0 °F 96% 30.02 in 3.0 mi Calm Calm - N/A   Mostly Cloudy
6:54 AM 62.1 °F - 61.0 °F 96% 30.03 in 4.0 mi Calm Calm - N/A   Mostly Cloudy
7:26 AM 62.6 °F - 60.8 °F 94% 30.05 in 2.0 mi Calm Calm - N/A   Mostly Cloudy
7:51 AM 62.6 °F - 60.8 °F 94% 30.05 in 3.0 mi Calm Calm - N/A   Mostly Cloudy
7:54 AM 62.1 °F - 61.0 °F 96% 30.04 in 3.0 mi Calm Calm - N/A   Mostly Cloudy
8:54 AM 69.1 °F - 64.9 °F 87% 30.05 in 7.0 mi Calm Calm - N/A   Scattered Clouds
9:54 AM 72.0 °F - 64.9 °F 78% 30.06 in 10.0 mi SSW 4.6 mph - N/A   Clear
10:54 AM 75.9 °F - 64.9 °F 69% 30.05 in 10.0 mi SSE 4.6 mph - N/A   Clear
11:54 AM 78.1 °F - 64.9 °F 64% 30.03 in 10.0 mi SSE 6.9 mph - N/A   Clear
12:54 PM 79.0 °F - 64.0 °F 60% 30.01 in 10.0 mi SSE 5.8 mph - N/A   Scattered Clouds
1:54 PM 81.0 °F 82.5 °F 64.0 °F 56% 29.98 in 4.0 mi SE 4.6 mph - N/A   Haze
2:54 PM 81.0 °F 82.5 °F 64.0 °F 56% 29.96 in 10.0 mi SSE 6.9 mph - N/A   Mostly Cloudy
3:36 PM 80.6 °F 81.8 °F 62.6 °F 54% 29.96 in 3.0 mi SW 3.5 mph - N/A   Haze
3:54 PM 82.0 °F 83.4 °F 64.0 °F 54% 29.94 in 9.0 mi SW 4.6 mph - N/A   Scattered Clouds
4:54 PM 81.0 °F 82.2 °F 63.0 °F 54% 29.92 in 10.0 mi Variable 3.5 mph - N/A   Clear
5:54 PM 77.0 °F - 64.9 °F 66% 29.92 in 10.0 mi Variable 3.5 mph - N/A   Clear
6:54 PM 75.0 °F - 64.0 °F 69% 29.92 in 10.0 mi Calm Calm - N/A   Clear
7:54 PM 72.0 °F - 64.9 °F 78% 29.92 in 10.0 mi Calm Calm - N/A   Clear
8:54 PM 69.1 °F - 66.0 °F 90% 29.92 in 10.0 mi Calm Calm - N/A   Mostly Cloudy
9:54 PM 71.1 °F - 64.9 °F 81% 29.93 in 10.0 mi Calm Calm - N/A   Scattered Clouds
10:54 PM 72.0 °F - 66.0 °F 81% 29.92 in 10.0 mi SSE 4.6 mph - N/A   Overcast
11:54 PM 73.0 °F - 68.0 °F 84% 29.89 in 10.0 mi SSE 10.4 mph 17.3 mph N/A   Mostly Cloudy